Location: Kervinic
(48.4279°N, 4.7373°W)
Time: 09:20:40
(UTC+00:00)

Cosmos 1741 Rocket - Pass Details

Date: 09 April 2020
Orbit: 762 x 782 km, 74.0° (Epoch: 24 May)

Event Time Altitude Azimuth Distance (km) Brightness Sun altitude
Exits shadow 21:21:09 22° 192° (SSW) 1,671 5.5 -21.2°
Maximum altitude 21:24:41 76° 110° (ESE) 810 3.9 -21.7°
Drops below altitude 10° 21:30:01 10° 26° (NNE) 2,347 6.7 -22.3°
Sets 21:32:25 0° 25° (NNE) 3,278 7.5 -22.6°
